Погода в Байкале

Россия / Новосибирская область     55°38′17″N   83°53′14″E
темп.,
°C
ветер,
м/с
пор.,
м/с
влажн.,
%
обл.,
%
осадки,
мм/ч
давл.,
гПа
погр.,
м
21 января, пт
пт2101:00−17ююз259852 0.0 103478
04:00−21ю2210061 0.0 103529
07:00−22ю2210072 0.0 103519
10:00−22ююв2210060 0.0 103516
13:00−14юв119365 0.0 1034113
16:00−12в129428 0.0 103389
19:00−19в2210017 0.0 103311
22:00−21всв1110057 0.0 103310
22 января, сб
сб2201:00−21св1110043 0.0 103316
04:00−22ссв1110060 0.0 103211
07:00−22ссв1110067 0.0 103310
10:00−21всв11100100 0.0 103323
13:00−13в2389100 0.0 1032144
16:00−12в1293100 0.0 103283
19:00−18вюв1198100 0.0 10349
22:00−19юв2198100 0.0 103412
23 января, вс
вс2301:00−21ююв119994 0.0 103510
04:00−22ю1110096 0.0 103411
07:00−21ю1199100 0.0 103515
10:00−20ю1199100 0.0 103526
13:00−15юз1192100 0.0 1034125
16:00−13зюз1193100 0.0 1034117
19:00−17ююв1198100 0.0 10359
22:00−16ю1198100 0.0 103517
24 января, пн
пн2401:00−15всв1197100 0.0 103525
04:00−16в1198100 0.0 103517
07:00−17всв1198100 0.0 103532
10:00−22св1110044 0.0 103610
13:00−15ссв239384 0.0 1036180
16:00−13с239478 0.0 1035186
19:00−20с1110080 0.0 10379
22:00−23ссв1110099 0.0 10379
25 января, вт
вт2501:00−24сз11100100 0.0 10379
04:00−24зюз00100100 0.0 103610
07:00−23юз1110093 0.0 103510
10:00−23юз1110098 0.0 103520
13:00−16юз129277 0.0 1034145
16:00−14ююз2392100 0.0 1033200
19:00−15ю2497100 0.0 1033101
22:00−15ююз3696100 0.1 1032227